Aérodrome :
LOGIN :

S'inscrire | Disclaimer

   EN    FR    IT 

 










Légende :    VFR   VFR Marginal   IFR   IFR Intensif   IFR Très Intensif
Visi : 
Plafond : 
>= 8 km
>= 3000ft
5 à 8 km
1000 à 3000 ft
1500m à 5 km
500 à 1000 ft
800 à 1500m
200 à 500 ft
< 800m
< 200 ft
Symboles :   Orages  Brouillard  Fortes neiges  Fortes précipitations  Vent > 20 kt
SIGMETs :   Divers  Orages  Givrage  Turbulence  Onde Orograph.  Cendres Volcan.






- Altitude de l'aérodrome : 294 ft
- Code IATA : NAP


LIRN - Naples Capodichino

DERNIER METAR :
  • 110950Z 21006KT 170V260 CAVOK 31/16 Q1016 NOSIG

METARs EXPIRÉS :
  • 110920Z 23005KT 150V290 CAVOK 30/17 Q1016 NOSIG
  • 110850Z VRB03KT CAVOK 30/19 Q1016 NOSIG
  • 110820Z VRB03KT CAVOK 29/17 Q1016 NOSIG
  • 110750Z 10003KT 020V180 CAVOK 28/18 Q1016 NOSIG
  • 110720Z VRB02KT 8000 NSC 28/21 Q1016 NOSIG

TAF TAF LIRN
Valide du 11 à 06h jusqu'au 12 à 06h UTC


110500Z 1106/1206 VRB05KT
BECMG 1109/1111 22010KT
BECMG 1118/1120 VRB05KT



MET'MAP, la Météo Aéronautique d'un coup d'oeil ! - Copyright ORBIFLY Décembre 2007 - Disclaimer

ORBIFLY MET'MAP TEAM :

Programmation & Développement : Alexandra Zaïnal
Sur une idée originale de : Baudouin d'Aumeries
Assistance à la programmation : Marc-Olivier Méhu
Soutien technique & logistique : Manuel Goepfert

Contact : metmap@orbifly.com




SOURCES & CREDITS :

   NOAA